Nantucket, MA

12:45 PM EDT on August 21, 2017 (GMT -0400)
Nantucket Memorial

Weather History for KACK - November, 2014

Change the Weather History Date:

Saturday, November 15, 2014

  Actual Average Record
Temperature  
Mean Temperature 36 °F -  
Max Temperature 39 °F 50 °F 61 °F (2011)
Min Temperature 28 °F 35 °F 21 °F (1976)
Degree Days  
Heating Degree Days 29    
Moisture  
Dew Point 20 °F    
Average Humidity 52    
Maximum Humidity 64    
Minimum Humidity 39    
Precipitation  
Precipitation 0.00 in - - ()
Sea Level Pressure  
Sea Level Pressure 30.23 in    
Wind  
Wind Speed 12 mph (NW)    
Max Wind Speed 16 mph    
Max Gust Speed 23 mph    
Visibility 10 miles    
Events      
Averages and records for this station are not official NWS values.
T = Trace of Precipitation, MM = Missing Value Source: NWS Daily Summary

Daily Weather History Graph

Daily Weather History Graph

Search for Another Location

Airport or City:

Trip Planner

Search our weather history database for the weather conditions in past years. The results will help you decide how hot, cold, wet, or windy it might be!

Date:

Astronomy

Nov. 15, 2014 Rise Set
Actual Time 6:28 AM EST 4:20 PM EST
Civil Twilight 5:58 AM EST 4:50 PM EST
Nautical Twilight 5:25 AM EST 5:23 PM EST
Astronomical Twilight 4:52 AM EST 5:56 PM EST
Moon No Moon Rise 12:46 PM EST (11/15)
Length of Visible Light 10h 51m
Length of Day
9h 52m
Last Quarter, 40% of the Moon is Illuminated
Nov 15
Last Quarter
Nov 22
New
Nov 29
First Quarter
Dec 6
Full
Dec 14
Last Quarter

Hourly Weather History & Observations

Time (EST) Temp. Windchill Dew Point Humidity Pressure Visibility Wind Dir Wind Speed Gust Speed Precip Events Conditions
12:53 AM 37.0 °F 27.7 °F 25.0 °F 62% 30.09 in 10.0 mi NW 16.1 mph - N/A   Clear
1:53 AM 37.0 °F 28.9 °F 25.0 °F 62% 30.10 in 10.0 mi NW 12.7 mph - N/A   Clear
2:53 AM 36.0 °F 26.3 °F 23.0 °F 59% 30.12 in 10.0 mi NW 16.1 mph - N/A   Clear
3:53 AM 36.0 °F 26.7 °F 21.0 °F 55% 30.14 in 10.0 mi NW 15.0 mph - N/A   Clear
4:53 AM 35.1 °F 26.9 °F 23.0 °F 61% 30.14 in 10.0 mi NW 11.5 mph - N/A   Clear
5:53 AM 34.0 °F 28.0 °F 23.0 °F 64% 30.17 in 10.0 mi NW 6.9 mph - N/A   Clear
6:53 AM 35.1 °F 27.4 °F 24.1 °F 64% 30.19 in 10.0 mi WNW 10.4 mph - N/A   Overcast
7:53 AM 37.0 °F 28.9 °F 21.9 °F 54% 30.21 in 10.0 mi NW 12.7 mph - N/A   Scattered Clouds
8:53 AM 37.9 °F 29.2 °F 19.9 °F 48% 30.23 in 10.0 mi NW 15.0 mph - N/A   Mostly Cloudy
9:53 AM 37.9 °F 28.9 °F 18.0 °F 45% 30.24 in 10.0 mi NW 16.1 mph - N/A   Clear
10:53 AM 39.0 °F 31.4 °F 17.1 °F 41% 30.23 in 10.0 mi NNW 12.7 mph - N/A   Clear
11:53 AM 39.0 °F 30.6 °F 16.0 °F 39% 30.23 in 10.0 mi NNW 15.0 mph - N/A   Clear
12:53 PM 37.9 °F 30.9 °F 16.0 °F 41% 30.23 in 10.0 mi WNW 10.4 mph - N/A   Clear
1:53 PM 39.0 °F 31.8 °F 17.1 °F 41% 30.23 in 10.0 mi NNW 11.5 mph 23.0 mph N/A   Partly Cloudy
2:53 PM 37.9 °F 30.9 °F 18.0 °F 45% 30.24 in 10.0 mi WNW 10.4 mph - N/A   Clear
3:53 PM 36.0 °F 29.6 °F 19.0 °F 50% 30.25 in 10.0 mi WNW 8.1 mph - N/A   Clear
4:53 PM 34.0 °F 28.0 °F 19.0 °F 54% 30.27 in 10.0 mi West 6.9 mph - N/A   Clear
5:53 PM 33.1 °F 26.9 °F 19.0 °F 56% 30.29 in 10.0 mi West 6.9 mph - N/A   Clear
6:53 PM 34.0 °F 28.0 °F 19.9 °F 56% 30.31 in 10.0 mi WNW 6.9 mph - N/A   Clear
7:53 PM 34.0 °F 28.0 °F 19.0 °F 54% 30.32 in 10.0 mi WNW 6.9 mph - N/A   Clear
8:53 PM 35.1 °F 29.3 °F 17.1 °F 48% 30.34 in 10.0 mi WNW 6.9 mph - N/A   Clear
9:53 PM 35.1 °F 29.3 °F 17.1 °F 48% 30.35 in 10.0 mi WNW 6.9 mph - N/A   Clear
10:53 PM 34.0 °F 28.8 °F 18.0 °F 52% 30.35 in 10.0 mi WNW 5.8 mph - N/A   Clear
11:53 PM 28.9 °F 25.2 °F 17.1 °F 61% 30.35 in 10.0 mi WNW 3.5 mph - N/A   Clear